Regional Weather Roundup
Issued by NWS Kansas City/Pleasant Hill, MO

Home | Current Version | Previous Version | Text Only | Print | Product List | Glossary On
Versions: 1 2 3 4 5 6 7 8 9 10 11 12 13 14 15 16 17 18 19 20 21 22 23 24 25 26 27 28 29 30 31 32 33 34 35 36 37 38 39 40 41 42 43 44 45 46 47 48 49 50
000
ASUS43 KEAX 241311
RWREAX

WEATHER ROUNDUP FOR EASTERN KANSAS AND NORTHWEST MISSOURI
NATIONAL WEATHER SERVICE KANSAS CITY/PLEASANT HILL MO
800 AM CDT FRI OCT 24 2014

KSZ040-057-103>105-MOZ028-029-037-043-241400-
...KANSAS CITY METROPOLITAN AREA...

CITY           SKY/WX    TMP DP  RH WIND       PRES   REMARKS
K.C. INTL      FOG       57  57 100 S10       30.04F VSB 1/2
K.C. DOWNTOWN  PTCLDY    56  54  93 S7        30.05S FOG
LEES SUMMIT    CLOUDY    55  54  96 S6        30.07S FOG
OLATHE - IXD   FOG       53  53 100 S6        30.06S VSB 3/4
OLATHE - OJC   FOG       53  53 100 S3        30.06S VSB 1
LAWRENCE       PTCLDY    55  53  93 SE6       30.04F FOG

$$

MOZ001>008-011>017-020>025-030>033-038>040-044>046-053-054-241400-
...NORTHERN AND CENTRAL MISSOURI...

CITY           SKY/WX    TMP DP  RH WIND       PRES   REMARKS
ST. JOSEPH     FOG       57  57 100 S8        30.03S VSB 3/4
MOSBY          FOG       55  55 100 S6        30.05S VSB<1/4
WHITEMAN AFB   FOG       56  55  96 S8        30.08S VSB 1
CLINTON        FOG       50  50 100 CALM      30.10S VSB<1/4
SEDALIA        CLOUDY    58  56  93 SW9       30.10S FOG
WARSAW         NOT AVBL
MARSHALL       CLOUDY    61  59  94 SW3       30.09S FOG
CHILLICOTHE      N/A     57  56  96 S5        30.06F
MOBERLY        FOG       57  54  88 SW6       30.09S VSB 1/4
KIRKSVILLE     FOG       55  55 100 SW10      30.08R VSB<1/4

$$

MOZ041-047>049-056>058-063>065-088>090-097-241400-
...EASTERN AND SOUTHERN MISSOURI...

CITY           SKY/WX    TMP DP  RH WIND       PRES   REMARKS
ST. LOUIS INTL CLOUDY    57  51  80 W6        30.11R
SPIRIT OF STL  MOCLDY    52  50  93 CALM      30.10S
COLUMBIA       CLOUDY    55  55 100 S3        30.10S FOG
JEFFERSON CITY CLOUDY    49  48  97 E3        30.10S FOG
MEXICO         FOG      N/A N/A N/A CALM      30.09S VSB<1/4
HANNIBAL       FOG       54  52  94 CALM      30.10R VSB 1/4
ROLLA          FOG       51  50  96 SW7       30.11R VSB 1
LEBANON        FOG       52  50  93 CALM      30.12S VSB<1/4
OSAGE BEACH    CLOUDY    57  55  94 CALM      30.10F
SPRINGFIELD    CLEAR     48  46  93 SE5       30.12R FOG
BRANSON        PTCLDY    48  48 100 CALM      30.14S
NEVADA         CLEAR     52  52 100 S8        30.10S
JOPLIN         MOCLDY    53  51  93 S7        30.12R
WEST PLAINS    CLOUDY    49  46  90 CALM      30.15R

$$

IAZ060-094-KSZ022-034>040-054-083-096-NEZ052-066-093-241400-
...KANSAS...SOUTHEAST NEBRASKA AND IOWA...

CITY           SKY/WX    TMP DP  RH WIND       PRES   REMARKS
TOPEKA         MOCLDY    59  58  96 S5        30.03S FOG
MANHATTAN      PTCLDY    56  55  97 SW5       30.01F FOG
EMPORIA        PTCLDY    56  56 100 S12       30.05R FOG
CHANUTE        MOCLDY    56  55  97 S8        30.08S
WICHITA        PTCLDY    57  55  93 S7        30.05S FOG
OMAHA          FOG       58  56  93 S13       29.93F VSB 1
LINCOLN        CLOUDY    59  57  93 S7        29.94F FOG
FALLS CITY     PTCLDY    58  56  93 S9        29.99F FOG
LAMONI         FOG       56  56 100 S9        30.02S VSB 1/4
DES MOINES     FOG       59  57  93 S13       29.98S VSB 1/8

$$




USA.gov is the U.S. government's official web portal to all federal, state and local government web resources and services.